Location: Eckley
(40.9930°N, 75.8630°W)
Time: 19:40:17
(UTC-04:00)

Daily predictions for brighter satellites

Satellite Brightness Start Highest point End
(mag) Time Altitude Azimuth Time Altitude Azimuth Time Altitude Azimuth
Cosmos 1666 3.2 20:57:42 10° NNW 21:01:35 65° W 21:05:26 10° S
COSMOS 2455 2.8 20:55:55 10° SSW 21:01:54 79° ESE 21:07:56 10° NNE
ERS-1 Rocket 3.0 20:59:25 10° SSE 21:04:24 74° ENE 21:09:26 10° N
CZ-4 DEB 3.9 21:03:28 10° S 21:06:34 44° W 21:09:42 10° NNW
BREEZE-M DEB (TANK) 2.8 21:09:05 10° WNW 21:11:33 36° SW 21:13:34 10° SSE
GRACE-1 4.0 21:11:54 10° N 21:14:43 58° E 21:17:33 10° S
SJ-11-01 4.3 21:10:24 10° SSE 21:15:03 85° ENE 21:19:46 10° NNW
GRACE-2 4.0 21:12:20 10° N 21:15:10 58° E 21:17:58 10° S
Envisat 3.2 21:17:32 10° SSE 21:22:30 58° ENE 21:27:29 10° N
GEOS 3 Rocket 3.7 21:18:30 10° SE 21:23:47 83° SW 21:29:02 10° NW
Cosmos 407 Rocket 3.9 21:20:11 10° S 21:25:05 41° ESE 21:29:57 10° NE
Cosmos 1515 3.6 21:29:56 10° S 21:33:48 82° E 21:37:40 10° N
CZ-2C R/B 2.7 21:32:27 10° SSW 21:34:19 22° W 21:36:13 10° NW
MetOp-A 4.4 21:31:35 12° SE 21:36:20 53° ENE 21:41:32 10° N
SL-27 R/B 4.0 21:36:56 16° ESE 21:37:27 16° E 21:39:38 10° ENE
Cosmos 1825 Rocket 3.6 21:34:32 10° S 21:38:56 64° E 21:43:19 10° NNE
UNK 4.4 21:33:31 10° NNE 21:38:57 54° ESE 21:44:38 10° S
Cosmos 1066 Rocket 4.3 21:36:12 10° S 21:41:51 67° E 21:47:39 10° NNE
COSMOS 2406 4.4 21:39:25 15° SE 21:42:34 23° E 21:46:57 10° NE
Cosmos 1943 Rocket 3.0 21:41:22 10° N 21:46:31 37° ENE 21:50:21 17° ESE
Lacrosse 4 Rocket 1.3 21:44:01 10° SSW 21:48:04 87° WNW 21:52:11 10° NNE
Cosmos 2084 4.4 21:50:31 10° NNW 21:54:21 36° NE 21:56:59 18° ESE
Atlas Centaur 2 3.5 21:48:51 10° WSW 21:55:12 36° S 22:00:12 19° SE
SeaSat 1 2.5 21:52:49 19° SE 21:56:18 67° ENE 22:01:13 10° NNW
Meteor 1-22 Rocket 4.3 21:52:01 10° N 21:57:42 74° E 22:02:15 17° SSE
Cosmos 1943 3.6 21:52:32 10° SSW 21:58:10 67° WNW 22:03:51 10° NNE
H-2A R/B 3.5 21:54:31 10° SSW 21:58:26 34° W 22:02:27 10° NNW
ISS -0.5 21:56:18 10° WNW 21:58:53 21° NNW 22:01:27 10° NNE
CZ-4C R/B 4.4 22:00:19 22° ESE 22:02:08 31° ENE 22:05:40 10° N
SL-23 DEB 4.3 22:00:16 10° SW 22:07:14 79° SE 22:11:14 10° ENE
USA 81 4.4 22:07:21 10° N 22:12:36 67° W 22:17:13 13° S
CZ-4B R/B 3.5 22:08:37 10° NNE 22:13:47 89° ESE 22:19:02 10° SSW
CZ-4 R/B 3.9 22:09:43 10° NNE 22:14:43 64° ESE 22:18:13 20° S
Cosmos 1953 3.1 22:12:19 10° N 22:16:01 35° ENE 22:17:07 29° ESE
PSLV R/B 3.2 22:16:35 10° W 22:20:08 76° SSW 22:21:15 40° ESE
Terra 2.8 22:19:03 24° ESE 22:20:56 33° ENE 22:25:10 10° N
ARGOS 3.1 22:18:01 25° SSE 22:21:16 77° ENE 22:26:42 10° N
ATLAS 3B R/B 3.4 22:15:28 10° SW 22:23:07 64° NW 22:30:35 10° NNE
Cosmos 1346 Rocket 3.7 22:19:56 10° SSW 22:23:42 47° WNW 22:27:32 10° N
SPOT 5 3.8 22:21:02 13° SSW 22:24:29 36° W 22:28:30 10° NNW
USA 245 4.1 22:21:15 22° S 22:25:04 78° WSW 22:29:52 10° NNW
Cosmos-2242 3.1 22:22:03 10° N 22:26:25 61° E 22:28:02 36° SE
Cosmos 1850 Rocket 4.4 22:24:44 30° SSE 22:26:42 42° ESE 22:31:35 10° NNE
Cosmos 1842 3.1 22:25:38 34° S 22:27:14 75° E 22:31:09 10° N
Cosmos 1953 Rocket 4.4 22:23:24 10° SSW 22:27:40 50° W 22:32:01 10° N
Cosmos 1140 Rocket 3.5 22:26:31 25° S 22:29:30 59° ESE 22:34:39 10° NNE
Cosmos 1570 Rocket 4.3 22:26:47 10° N 22:32:04 54° ENE 22:34:19 32° SE
H-2A R/B 2.3 22:33:42 32° SE 22:35:38 50° ENE 22:40:35 10° N
NOSS 3-2 (A) 4.2 22:35:29 29° SE 22:36:20 30° ESE 22:41:49 10° NE
Meteor 1-21 4.5 22:31:59 12° SSW 22:37:17 72° W 22:43:08 10° N
Lacrosse 5 4.4 22:34:49 10° NNW 22:37:44 15° NNE 22:40:39 10° NE
Cosmos 1607 3.9 22:32:57 13° SSW 22:38:29 61° ESE 22:44:36 10° NE
SL-8 R/B 4.1 22:33:44 10° WNW 22:38:33 61° NNE 22:41:05 27° E
Cosmos 2369 Rocket 3.6 22:35:54 10° NW 22:40:47 31° WSW 22:44:35 15° SSW
USA 234 3.3 22:37:09 26° ESE 22:41:10 76° NE 22:47:44 10° NW
SPOT 1/Viking Rocket 4.1 22:41:55 23° SSW 22:44:56 51° W 22:49:57 10° NNW
YAOGAN 6 4.1 22:43:54 22° SW 22:45:35 32° W 22:48:59 10° NNW
Cosmos 2279 Rocket 4.2 22:40:09 10° NNW 22:46:22 69° W 22:50:14 24° S
Cosmos 614 Rocket 4.1 22:48:02 40° SSE 22:49:34 55° ESE 22:54:40 10° NNE
SL-08 RB Rocket 4.0 22:51:27 34° SSW 22:53:12 58° W 22:57:40 10° NNW
NOAA 11 4.5 22:51:02 29° S 22:53:46 60° WSW 22:59:08 10° NNW
SAR-Lupe-2 3.4 22:58:16 81° SSE 22:58:26 88° ENE 23:02:03 10° NNW
Spot 2 4.4 22:54:13 10° NNE 22:59:07 69° ESE 23:00:35 45° S
Cosmos 1340 3.5 23:00:50 36° ENE 23:00:50 36° ENE 23:03:49 10° NNE
Meteor 2-5 Rocket 4.2 23:00:28 39° SE 23:01:50 45° E 23:07:17 10° NNE
Cosmos 1544 3.4 22:58:18 10° N 23:01:55 53° ENE 23:01:55 53° ENE
CARTOSAT-1 3.5 23:02:00 58° S 23:02:51 88° WSW 23:07:12 10° NNW
CZ-4C R/B 2.5 23:03:36 41° ESE 23:03:47 41° ESE 23:09:13 10° NE
Cosmos 1758 3.7 23:00:42 10° NNW 23:04:45 59° W 23:05:36 48° SW
Okean 3 Rocket 3.9 23:08:05 47° E 23:08:07 47° E 23:12:22 10° NNE
USA 238 DEB 4.0 23:03:36 10° SW 23:10:39 69° NW 23:17:44 10° NNE
USA 238 4.0 23:03:41 10° SW 23:10:45 69° NW 23:17:48 10° NNE
DMSP B5D2-2 4.0 23:10:59 10° NNE 23:16:17 86° WNW 23:18:08 42° SSW
Cosmos 1470 2.8 23:15:41 10° N 23:19:20 66° NE 23:19:20 66° NE
Cosmos 1805 4.0 23:16:16 10° NNW 23:20:01 43° W 23:20:29 41° WSW
IGS 5A 3.5 23:19:53 61° SW 23:20:16 65° W 23:24:25 10° NNW
COSMOS 2487 2.9 23:24:52 63° NW 23:24:52 63° NW 23:28:10 10° NNE
COSMOS 2406 4.0 23:21:23 12° SW 23:26:29 50° WNW 23:32:04 10° NNE
Cosmos 1943 Rocket 3.4 23:25:20 10° NW 23:30:07 30° WSW 23:31:53 25° SW
Cosmos 1842 Rocket 4.1 23:28:18 10° NNW 23:32:33 48° W 23:33:08 45° WSW
ALOS 2 4.4 23:32:11 19° ENE 23:32:34 20° ENE 23:35:44 10° NNE
Cosmos 1818 4.2 23:27:41 10° NNW 23:33:01 49° NE 23:34:29 39° E
Cosmos 2082 Rocket 3.7 23:34:49 21° E 23:34:49 21° E 23:38:13 10° NE
ISS 0.0 23:34:40 10° NNW 23:36:15 13° N 23:37:49 10° NNE
Cosmos 1656 Rocket 3.9 23:31:32 10° NNW 23:37:07 58° WSW 23:38:15 48° SSW
CZ-4B R/B 3.9 23:37:33 16° ENE 23:37:33 16° ENE 23:39:30 10° NNE
H-2A R/B 4.3 23:40:04 10° NE 23:41:37 18° ENE 23:41:37 18° ENE
Atlas Centaur 2 4.1 23:38:02 10° WSW 23:42:50 24° SSW 23:42:50 24° SSW
NOSS 3-2 (C) 3.3 23:43:08 50° SSW 23:44:48 75° ESE 23:51:26 10° NE
Cosmos 1553 Rocket 4.5 23:40:19 10° N 23:46:29 49° ENE 23:47:54 42° ESE
Cosmos 1707 3.2 23:50:19 60° NW 23:50:19 60° NW 23:53:47 10° N
Cosmos 1076 Rocket 3.9 23:56:04 57° NE 23:56:04 57° NE 23:59:37 10° NNE
Lacrosse 5 rocket 4.3 23:55:06 10° N 23:57:14 13° NNE 23:59:25 10° NE
